Location: Guijasalbas
(40.8192°N, 4.2806°W)
Time: 03:29:31
(UTC+00:00)

Daily predictions for brighter satellites

Satellite Brightness Start Highest point End
(mag) Time Altitude Azimuth Time Altitude Azimuth Time Altitude Azimuth
Cosmos 1816 Rocket 4.5 00:07:26 56° SW 00:08:40 71° W 00:14:47 10° N
ATLAS CENTAUR R/B 3.7 00:07:31 29° WSW 00:10:21 64° NW 00:22:50 10° NE
Cosmos 1812 Rocket 3.7 00:15:32 10° N 00:19:25 70° N 00:19:25 70° N
SL-16 R/B 2.3 00:19:56 57° WSW 00:20:57 69° WNW 00:26:38 10° NNE
USA 229 DEB 3.5 00:22:35 59° SSE 00:23:27 66° ESE 00:30:06 10° NE
USA 229 3.5 00:22:42 59° SSE 00:23:34 65° ESE 00:30:12 10° NE
Cosmos 2237 Rocket 4.0 00:20:44 14° W 00:24:16 24° NW 00:28:48 10° N
Cosmos 2034 Rocket 4.4 00:21:31 10° NNW 00:27:22 47° W 00:28:24 43° WSW
NOSS 3-1 (C) 3.3 00:31:10 54° WSW 00:32:15 69° NW 00:38:22 10° NNE
Cosmos 2369 Rocket 3.1 00:31:11 10° NNW 00:36:38 43° ENE 00:38:58 29° ESE
SJ 16-02 1.7 00:36:20 10° NNW 00:40:01 59° NW 00:40:01 59° NW
GP-B 3.5 00:37:49 10° N 00:41:51 53° WNW 00:41:51 53° WNW
NOSS 2-3 (E) 3.8 00:42:31 59° NW 00:42:31 59° NW 00:47:01 10° NNE
NOSS 3-1 (A) 3.0 00:42:41 74° S 00:43:11 83° ESE 00:49:16 10° NE
Cosmos 1825 Rocket 3.6 00:45:41 77° N 00:45:41 77° N 00:49:50 10° N
ATLAS 5 CENTAUR R/B 3.9 00:48:04 11° E 00:48:04 11° E 00:48:36 10° E
CZ-4 R/B 4.4 00:49:03 10° NNE 00:53:30 43° E 00:53:33 43° E
Cosmos 2142 Rocket 4.4 00:49:04 10° N 00:55:14 89° E 00:56:33 59° S
Cosmos 2278 Rocket 4.4 00:58:02 10° W 00:58:55 11° W 00:58:55 11° W
Aureole 3 4.3 00:56:20 10° NNW 00:59:40 43° WNW 00:59:40 43° WNW
Helios 1A 3.9 01:00:06 38° E 01:00:31 39° ENE 01:04:27 10° N
Cosmos 468 Rocket 3.8 01:00:57 77° SSW 01:01:21 89° WNW 01:06:36 10° NNE
Cosmos 2297 4.0 00:56:01 10° NW 01:01:26 48° WSW 01:01:28 48° WSW
SL-16 R/B 4.0 00:59:52 13° ESE 01:04:30 31° ENE 01:09:48 10° N
USA 305 4.1 01:10:32 32° E 01:10:32 32° E 01:13:17 10° ENE
Cosmos 1953 Rocket 3.6 01:10:29 70° NW 01:10:29 70° NW 01:14:41 10° N
BREEZE-M DEB (TANK) 4.4 01:10:37 39° SW 01:13:32 86° SSE 01:40:30 10° ENE
Lacrosse 4 Rocket 4.2 01:12:41 10° NNE 01:15:03 15° NE 01:17:24 10° E
Cosmos 2098 Rocket 3.9 01:15:09 46° SE 01:16:11 53° E 01:20:46 10° NNE
Cosmos 1763 Rocket 3.4 01:15:44 61° WSW 01:16:19 67° WNW 01:21:25 10° NNE
BREEZE-M R/B 3.6 01:18:12 34° E 01:18:12 34° E 01:20:49 10° ENE
Cosmos 1892 4.0 01:21:02 32° WNW 01:21:02 32° WNW 01:24:02 10° N
USA 267 3.3 01:19:19 49° S 01:20:35 56° SW 01:27:00 10° NW
Cosmos 1869 4.2 01:17:49 10° NNW 01:21:00 40° WNW 01:21:00 40° WNW
Cosmos 1437 Rocket 3.1 01:18:46 10° N 01:22:18 60° NE 01:22:18 60° NE
Resurs 1-4 Rocket 2.9 01:18:05 10° NNE 01:23:07 41° E 01:24:23 35° SE
Cosmos 2180 Rocket 4.4 01:17:33 10° N 01:23:57 78° W 01:25:40 51° S
Cosmos 1943 Rocket 2.9 01:24:48 10° NW 01:29:31 35° W 01:29:31 35° W
USA 306 3.1 01:32:05 58° E 01:32:05 58° E 01:35:50 10° NE
Exosat Rocket 4.2 01:30:27 41° SW 01:32:35 60° WNW 01:37:56 10° NNE
Cosmos 921 Rocket 3.2 01:32:38 57° ESE 01:32:39 57° ESE 01:36:47 10° NNE
Cosmos 1842 Rocket 3.6 01:28:27 10° N 01:32:48 67° E 01:33:14 62° ESE
NPP 4.5 01:29:13 10° NNE 01:34:18 41° E 01:35:57 32° SE
ADEOS II 3.8 01:30:25 10° NE 01:34:35 24° E 01:36:49 18° SE
Cosmos 1943 3.2 01:33:25 52° SW 01:34:43 71° WNW 01:40:23 10° NNE
MOZ.5/SAFIR/RUBIN 5/SL-8 3.7 01:38:06 63° SSE 01:38:53 88° ENE 01:43:40 10° NNW
CZ-2D R/B 2.3 01:36:43 10° NNE 01:41:52 59° E 01:43:15 44° SSE
Cosmos 1603 4.0 01:41:52 43° WSW 01:43:27 58° WNW 01:49:03 10° NNE
Cosmos 2151 4.1 01:44:56 31° ESE 01:45:51 34° E 01:49:40 10° NNE
Cosmos 1825 3.3 01:47:48 33° WNW 01:47:48 33° WNW 01:50:51 10° N
Cosmos 1076 Rocket 3.4 01:49:45 66° SE 01:50:12 74° E 01:54:27 10° NNE
AQUA 4.5 01:49:16 10° NNE 01:53:52 47° E 01:55:17 36° SE
Cosmos 540 Rocket 3.8 01:55:00 43° WSW 01:56:10 53° WNW 02:01:11 10° N
Cosmos 1437 4.0 01:53:48 10° N 01:55:51 35° NE 01:55:51 35° NE
Cosmos 405 Rocket 4.4 01:58:43 21° WNW 01:58:43 21° WNW 02:01:18 10° NNW
DELTA 2 R/B (1) 3.4 01:57:41 38° WSW 01:59:49 75° S 02:05:21 10° E
Cosmos 1242 Rocket 2.5 01:56:42 10° NNW 02:00:05 74° NW 02:00:05 74° NW
Cosmos 2058 3.8 02:00:33 35° W 02:00:37 35° WNW 02:04:24 10° N
X-37B 2.0 02:01:04 26° NW 02:02:18 37° N 02:05:18 10° ENE
Cosmos 841 Rocket 3.8 02:03:07 41° WSW 02:04:29 53° WNW 02:09:32 10° N
Cosmos 2221 2.8 02:00:57 10° NNW 02:05:05 48° W 02:05:12 48° W
NOSS 2-2 (E) 3.2 02:08:02 57° WNW 02:08:10 57° NW 02:11:46 10° NNE
Cosmos 1656 Rocket 3.9 02:04:35 10° NNW 02:10:06 52° WSW 02:11:35 41° SSW
Cosmos 2292 Rocket 4.3 02:09:52 26° ESE 02:10:13 26° E 02:12:45 10° NNE
GPS 2-04 Rocket1 3.9 02:15:43 28° SE 02:15:43 28° SE 02:18:04 10° ESE
USA 307 3.1 02:14:11 43° W 02:15:21 62° NW 02:19:35 10° NE
Cosmos 1898 Rocket 4.4 02:11:45 10° NW 02:16:13 29° W 02:16:25 29° WSW
Cosmos 1937 Rocket 4.0 02:11:34 10° NNW 02:16:33 42° WSW 02:17:26 38° SW
Cosmos 2026 Rocket 3.9 02:16:00 34° S 02:18:58 86° W 02:25:21 10° N
Cosmos 2369 Rocket 3.2 02:15:41 10° NW 02:20:23 27° WSW 02:20:43 27° WSW
Meteor 2-15 Rocket 4.4 02:15:02 10° N 02:21:12 85° W 02:24:43 27° S
NOSS 2-2 (C) 3.3 02:21:26 49° W 02:21:51 53° NW 02:25:23 10° NNE
Meteor 2-15 4.5 02:16:40 10° NNW 02:22:44 65° W 02:25:34 32° SSW
ERBS 3.2 02:24:39 34° ESE 02:24:39 34° ESE 02:27:30 10° ENE
Aureole 3 Rocket 3.4 02:22:37 10° NNW 02:26:42 58° W 02:28:38 36° SSW
Cosmos 1633 3.1 02:27:25 39° W 02:27:30 39° WNW 02:30:50 10° N
Helios 1B rocket 2.6 02:25:26 10° N 02:29:27 56° WNW 02:30:26 43° WSW
ATLAS 5 CENTAUR R/B 1.8 02:29:34 37° W 02:30:43 50° NW 02:34:55 10° NNE
USA 308 3.6 02:29:32 29° W 02:31:20 48° NW 02:35:28 10° NE
UNK 3.9 02:32:45 39° SSW 02:34:03 51° W 02:38:34 10° NNW
SL-19 R/B 4.1 02:28:54 10° NNE 02:34:12 77° WNW 02:36:51 31° SSW
Cosmos 2298 Rocket 4.3 02:29:40 10° NNW 02:35:00 68° ENE 02:40:18 10° SSE
SeaSat 1 3.7 02:33:47 10° NE 02:38:15 34° ESE 02:41:19 17° SSE
Cosmos 1606 3.8 02:35:52 10° NNW 02:39:08 28° W 02:39:09 28° W
ADEOS Rocket 3.3 02:32:27 12° SSE 02:39:32 90° WNW 02:46:17 10° NNW
USA 290 3.7 02:44:01 24° WNW 02:44:22 24° WNW 02:47:04 10° N
Cosmos 1933 3.3 02:41:32 10° N 02:45:38 75° W 02:47:30 31° S
IRIDIUM 104 4.4 02:40:58 10° N 02:46:13 80° E 02:50:07 18° S
Cosmos 2150 Rocket 4.1 02:41:19 10° NNW 02:46:33 80° ENE 02:51:49 10° SSE
SL-16 R/B 2.9 02:44:57 27° SSW 02:47:53 43° W 02:53:45 10° NNW
Meteor 1-28 Rocket 3.4 02:45:49 20° SSE 02:48:18 72° ENE 02:52:06 10° N
USA 305 4.2 02:46:34 17° W 02:49:16 34° NNW 02:53:11 10° NE
DELTA 2 DEB (DPAF) 4.2 02:45:47 16° SSE 02:49:17 81° ENE 02:53:45 10° N
Tianhe-1 3.2 02:49:34 16° SE 02:49:34 16° SE 02:51:19 10° ESE
Lacrosse 4 Rocket 1.3 02:50:05 10° NW 02:54:05 55° WSW 02:56:19 24° S
Cosmos 1125 Rocket 3.7 02:49:11 10° NNW 02:54:27 77° ENE 02:59:44 10° SSE
IRIDIUM 114 4.3 02:50:07 10° N 02:55:22 84° W 02:59:15 18° S
Cosmos 1151 Rocket 3.2 02:51:48 10° N 02:56:04 68° E 02:59:53 12° SSE
CZ-4C R/B 2.6 02:56:32 21° S 02:59:27 47° ESE 03:04:43 10° NE
Meteor 1-29 3.5 02:56:18 10° N 02:59:31 41° WNW 03:00:31 32° WSW
Cosmos 1766 Rocket 3.5 02:59:08 24° S 03:01:51 87° W 03:06:21 10° N
ARIANE 5 R/B 3.6 02:57:33 10° NNE 03:02:15 40° E 03:06:56 10° SSE
Resurs 1-4 Rocket 3.5 02:58:21 10° N 03:02:41 26° WNW 03:05:28 17° WSW
SL-4 R/B 4.5 03:01:39 10° NNW 03:04:22 19° NNE 03:06:58 10° ENE
IRIDIUM 103 4.3 02:59:18 10° N 03:04:30 69° W 03:08:22 18° S
Cosmos 1408 Rocket 4.4 03:00:36 12° SSE 03:04:32 48° E 03:08:51 10° NNE
Landsat 4 4.3 03:03:08 10° N 03:06:42 41° WNW 03:08:18 26° SW
NOSS 5 (C) 4.4 03:07:12 10° NW 03:10:27 68° SW 03:14:34 10° SSE
Cosmos 1862 3.8 03:08:08 14° S 03:11:29 57° E 03:15:28 10° NNE
Okean 3 Rocket 3.6 03:09:58 22° SSW 03:12:44 68° W 03:17:06 10° N
FALCON 9 DEB 3.1 03:09:24 10° WNW 03:12:44 55° SW 03:16:02 10° SE
Lacrosse 5 rocket 3.9 03:10:50 10° NNW 03:13:43 22° NNE 03:16:39 10° E
ADEOS II 2.7 03:09:28 10° N 03:14:24 42° WNW 03:17:45 19° SW
Meteor 2-3 Rocket 4.3 03:13:46 20° SW 03:17:13 42° WNW 03:22:30 10° N
CZ-2D R/B 3.9 03:18:00 10° NNW 03:21:26 18° WNW 03:24:34 11° W
Cosmos 1655 Rocket 4.0 03:17:11 14° SSW 03:22:40 78° W 03:28:56 10° N
ASTEX 1 3.3 03:17:53 10° S 03:22:49 76° W 03:27:45 10° N
Meteor 2-16 Rocket 4.4 03:21:12 12° S 03:26:58 81° W 03:33:07 10° N
IDEFIX/ARIANE 42P 2.8 03:23:39 10° N 03:28:48 59° WNW 03:33:05 15° SSW
COSMOS 2406 3.9 03:26:14 10° S 03:31:40 50° ESE 03:37:08 10° NNE
deb Kosmos-1763 3.9 03:34:29 15° SSW 03:37:19 88° WNW 03:40:51 10° NNE
X-37B 0.5 03:35:58 10° WNW 03:39:10 88° SSW 03:42:20 10° ESE
CZ-2D R/B 3.7 03:36:04 10° NNE 03:40:13 68° E 03:44:15 10° S
Alouette 2 Rocket 3.9 03:37:16 10° NNW 03:40:41 38° W 03:44:50 10° SSW
DELTA 2 R/B (1) 3.5 03:40:39 10° W 03:46:11 72° S 03:51:43 10° ESE
Cosmos 1812 2.9 03:43:25 10° NNW 03:47:09 51° W 03:50:52 10° S
Cosmos 1656 3.8 03:42:37 10° NNW 03:48:22 89° ENE 03:54:02 10° SSE
Cosmos 2315 Rocket 4.0 03:43:24 10° N 03:49:38 88° W 03:55:50 10° S
SL-08 R/B 3.3 03:45:06 10° SSE 03:49:44 82° WSW 03:54:30 10° NNW
Delta 2 Rocket 4.0 03:46:58 13° SW 03:50:07 34° S 03:53:29 10° ESE
FALCON 9 DEB 3.3 03:47:26 10° NW 03:50:33 67° NE 03:53:39 10° ESE
CZ-2C R/B 4.0 03:47:32 10° NNE 03:51:11 40° E 03:54:44 10° S
CZ-2C R/B 3.2 03:51:12 10° S 03:52:27 12° SSE 03:53:40 10° SE
IRS-1C 4.4 03:47:40 10° N 03:52:53 54° WNW 03:58:03 10° SSW
GPS 2-04 Rocket1 3.4 03:49:52 10° WSW 03:53:28 33° S 03:56:55 10° SE
Cosmos 1782 4.3 03:51:26 10° NW 03:54:23 20° W 03:57:13 11° SW
CZ-2C R/B 2.8 03:50:44 10° NNE 03:55:39 63° E 04:00:22 10° S
Cosmos 2084 Rocket 3.2 03:52:11 12° SW 03:55:52 80° NW 03:59:51 10° NNE
Cosmos 1271 Rocket 3.7 03:52:48 10° NNW 03:56:01 28° W 03:59:14 10° SSW
CZ-4C R/B 4.3 03:55:58 10° SSW 03:58:46 23° W 04:01:34 10° NW
Cosmos 1697 Rocket 3.5 03:54:33 10° NNW 04:00:08 57° ENE 04:05:42 10° SE
ERBS 4.1 03:58:06 10° W 04:00:40 21° NW 04:03:16 10° NNE
USA 281 3.5 03:55:22 10° S 04:01:38 47° WSW 04:07:57 10° NW
MSX 4.4 03:57:53 10° N 04:03:17 43° WNW 04:08:40 10° SW
Cosmos 1500 Rocket 3.6 04:02:19 10° SSW 04:06:36 64° W 04:10:55 10° N
FALCON 9 DEB 2.9 04:04:20 10° WNW 04:07:21 53° SW 04:10:20 10° SE
Cosmos 773 Rocket 4.2 04:04:09 10° SSW 04:09:23 62° WNW 04:14:38 10° NNE
Cosmos 1743 Rocket 3.7 04:06:41 10° SSW 04:10:59 58° W 04:15:22 10° N
FALCON 9 DEB 2.8 04:11:15 10° WNW 04:14:20 62° SW 04:17:23 10° SE
NOSS 3-4 (A) 3.8 04:08:45 10° SSW 04:14:26 62° ESE 04:20:27 10° NE
NOSS 3-4 (C) 3.8 04:08:53 10° SSW 04:14:34 61° ESE 04:20:35 10° NE
SeaSat 1 3.5 04:11:18 10° N 04:15:41 33° NW 04:20:02 10° WSW
